Location: Unspecified
(0.0000°N, 0.0000°E)
Time: 20:59:09
(UTC+00:00)

Hubble Space Telescope - Pass Details

Date: 22 June 2017
Orbit: 538 x 541 km, 28.5° (Epoch: 26 June)

Event Time Altitude Azimuth Distance (km) Brightness Sun altitude
Exits shadow 03:51:54 29° 85° (E) 1,003 2.6 -29.6°
Drops below altitude 10° 03:54:06 10° 72° (ENE) 1,786 4.3 -29.1°
Sets 03:56:23 0° 67° (ENE) 2,676 5.6 -28.6°
